Project,Study,Ord_Occ,Event_Num,Cast_ID,Date_Time_UTC,Date_Time_PST,Lat_Dec,Lon_Dec,Sta_ID,Line,Sta,Depth,Pressure,PrQ,Temp1,Temp1Q,Temp2,Temp2Q,TempAve,Salt1,Salt1Q,Salt1_Corr,Salt2,Salt2Q,Salt2_Corr,SaltAve_Corr,Ox1,Ox1Q,Ox1_CruiseCorr,Ox1_StaCorr,Ox2,Ox2Q,Ox2_CruiseCorr,Ox2_StaCorr,OxAve_StaCorr,Ox1uM,Ox1uM_CruiseCorr,Ox1uM_StaCorr,Ox2uM,Ox2uM_CruiseCorr,Ox2uM_StaCorr,OxAveuM_StaCorr,FluorV,FluorQ,EstChl_CruiseCorr,EstChl_StaCorr,ISUSV,ISUSQ,EstNO3_CruiseCorr,EstNO3_StaCorr,SigThetaTS1,SigThetaTS1Q,SigThetaTS2,SigThetaTS2Q,BAT,XMiss,TransQ,pH,pHQ,SPAR,SPARQ,PAR,PARQ,PoT1,PoT2,DynHt,SVA,OxSat1,OxSat2,BTL_Depth,BTL_Temp,SaltB,OxB,OxBuM,Chl-a,Phaeo,NO3,NO2,NH4,PO4,SIL
CalCOFI,2007SR,025,26,2007_025d,18-Jul-2020 10:10:47,18-Jul-2020 02:10:47,32.65180,-119.48166,090.0 053.0,090.0,053.0,1.000,1.008,,18.0532,,18.0522,,18.0527,33.7227,,33.7229,33.7226,,33.7242,33.7236,5.6081,,5.8422,6.0328,4.2397,,6.1802,4.8820,5.4574,244.518,254.7642,178.6665,184.859,432.5113,150.4572,164.5619,0.1359,,1.1746,1.3688,,,,,24.2810,,24.2813,,0.8955,79.9404,,8.202,,1.9043E+00,,4.2776E-01,,18.0529,18.0519,-0.0076,,103.719,78.411,,,,,,,,,,,,
CalCOFI,2007SR,025,26,2007_025d,18-Jul-2020 10:11:48,18-Jul-2020 02:11:48,32.65180,-119.48166,090.0 053.0,090.0,053.0,2.000,2.014,,18.0664,,18.0669,,18.0667,33.7234,,33.7236,33.7239,,33.7255,33.7246,5.5998,,5.8335,6.0239,4.2239,,6.1425,4.8458,5.4349,244.159,254.3895,178.4504,184.169,431.6333,149.5136,163.9820,0.1346,,1.1592,1.3547,,,,,24.2784,,24.2786,,0.9282,79.2916,,8.208,,1.9043E+00,,-1.798E-02,,18.0661,18.0666,0.0078,,103.593,78.141,2,18.082,33.7253,5.979,261.04,1.334,0.004,,,,,0.52
CalCOFI,2007SR,025,26,2007_025d,18-Jul-2020 10:11:46,18-Jul-2020 02:11:46,32.65180,-119.48166,090.0 053.0,090.0,053.0,3.000,3.021,,18.0734,,18.0730,,18.0732,33.7233,,33.7235,33.7236,,33.7252,33.7244,5.5916,,5.8250,6.0150,4.2248,,6.1447,4.8478,5.4314,243.802,254.0168,178.2354,184.208,430.7601,149.5670,163.9012,0.1506,,1.3481,1.5252,,,,,24.2766,,24.2770,,0.9204,79.4452,,8.207,,1.9043E+00,,2.4693E-02,,18.0729,18.0725,0.0104,,103.455,78.167,,,,,,,,,,,,
CalCOFI,2007SR,025,26,2007_025d,18-Jul-2020 10:11:47,18-Jul-2020 02:11:47,32.65180,-119.48166,090.0 053.0,090.0,053.0,4.000,4.028,,18.0730,,18.0724,,18.0727,33.7233,,33.7235,33.7237,,33.7253,33.7244,5.5891,,5.8224,6.0123,4.2288,,6.1542,4.8570,5.4347,243.692,253.9020,178.1692,184.381,430.4910,149.8035,163.9864,0.1474,,1.3103,1.4916,,,,,24.2767,,24.2772,,0.9171,79.5112,,8.208,,1.9043E+00,,1.8833E-02,,18.0724,18.0717,0.0140,,103.408,78.239,,,,,,,,,,,,
CalCOFI,2007SR,025,26,2007_025d,18-Jul-2020 10:11:50,18-Jul-2020 02:11:50,32.65180,-119.48166,090.0 053.0,090.0,053.0,5.000,5.035,,18.0733,,18.0728,,18.0731,33.7232,,33.7234,33.7236,,33.7252,33.7243,5.5960,,5.8296,6.0198,4.2278,,6.1518,4.8547,5.4373,243.992,254.2151,178.3498,184.338,431.2248,149.7447,164.0473,0.1308,,1.1144,1.3134,,,,,24.2766,,24.2771,,0.9118,79.6173,,8.208,,1.9043E+00,,7.2884E-03,,18.0724,18.0719,0.0177,,103.535,78.222,,,,,,,,,,,,
CalCOFI,2007SR,025,26,2007_025d,18-Jul-2020 10:11:52,18-Jul-2020 02:11:52,32.65179,-119.48166,090.0 053.0,090.0,053.0,6.000,6.043,,18.0707,,18.0706,,18.0707,33.7232,,33.7234,33.7233,,33.7249,33.7242,5.6269,,5.8618,6.0531,4.2296,,6.1561,4.8589,5.4560,245.342,255.6244,179.1627,184.416,434.5267,149.8514,164.5071,0.1355,,1.1698,1.3645,,,,,24.2773,,24.2774,,0.9180,79.4929,,8.208,,1.9043E+00,,2.3938E-03,,18.0697,18.0695,0.0214,,104.103,78.251,,,,,,,,,,,,
CalCOFI,2007SR,025,26,2007_025d,18-Jul-2020 10:11:54,18-Jul-2020 02:11:54,32.65179,-119.48166,090.0 053.0,090.0,053.0,7.000,7.050,,17.9971,,17.9979,,17.9975,33.7193,,33.7195,33.7189,,33.7205,33.7200,5.6584,,5.8948,6.0870,4.2446,,6.1919,4.8933,5.4902,246.710,257.0525,179.9863,185.066,437.8726,150.7402,165.3633,0.1615,,1.4768,1.6379,,,,,24.2924,,24.2919,,0.9294,79.2671,,8.209,,1.9043E+00,,-3.847E-05,,17.9959,17.9967,0.0250,,104.536,78.418,,,,,,,,,,,,
CalCOFI,2007SR,025,26,2007_025d,18-Jul-2020 10:11:56,18-Jul-2020 02:11:56,32.65180,-119.48166,090.0 053.0,090.0,053.0,8.000,8.057,,17.8677,,17.8470,,17.8574,33.7147,,33.7149,33.7123,,33.7139,33.7144,5.7265,,5.9659,6.1605,4.2574,,6.2225,4.9226,5.5416,249.675,260.1476,181.7716,185.621,445.1246,151.4992,166.6354,0.1831,,1.7322,1.8532,,,,,24.3204,,24.3236,,0.9555,78.7509,,8.211,,1.9043E+00,,1.0000E-12,,17.8663,17.8456,0.0286,,105.534,78.427,,,,,,,,,,,,
CalCOFI,2007SR,025,26,2007_025d,18-Jul-2020 10:11:58,18-Jul-2020 02:11:58,32.65180,-119.48166,090.0 053.0,090.0,053.0,9.000,9.064,,17.5051,,17.5356,,17.5204,33.7173,,33.7175,33.7129,,33.7145,33.7160,5.7626,,6.0036,6.1994,4.2882,,6.2960,4.9933,5.5964,251.225,261.7657,182.7048,186.949,448.9157,153.3152,168.0100,0.1870,,1.7783,1.8909,,,,,24.4101,,24.3994,,0.9786,78.2979,,8.218,,1.9043E+00,,1.0000E-12,,17.5036,17.5341,0.0322,,105.468,78.527,,,,,,,,,,,,
CalCOFI,2007SR,025,26,2007_025d,18-Jul-2020 10:12:00,18-Jul-2020 02:12:00,32.65179,-119.48166,090.0 053.0,090.0,053.0,10.000,10.071,,17.3392,,17.3692,,17.3542,33.7135,,33.7137,33.7110,,33.7126,33.7132,5.7859,,6.0280,6.2245,4.3103,,6.3488,5.0439,5.6342,252.230,262.8148,183.3100,187.906,451.3738,154.6238,168.9669,0.1925,,1.8434,1.9435,,,,,24.4470,,24.4379,,1.0094,77.6971,,8.221,,1.9043E+00,,1.0000E-12,,17.3376,17.3675,0.0357,,105.556,78.680,10,18.069,33.7250,, ,,,,,,,
CalCOFI,2007SR,025,26,2007_025d,18-Jul-2020 10:12:02,18-Jul-2020 02:12:02,32.65179,-119.48166,090.0 053.0,090.0,053.0,11.000,11.078,,17.2393,,17.2412,,17.2403,33.7112,,33.7114,33.7113,,33.7129,33.7122,5.7904,,6.0327,6.2294,4.3259,,6.3860,5.0797,5.6546,252.421,263.0142,183.4249,188.579,451.8409,155.5441,169.4845,0.2187,,2.1537,2.1845,,,,,24.4691,,24.4687,,1.0189,77.5124,,8.221,,1.9043E+00,,1.0000E-12,,17.2374,17.2393,0.0392,,105.435,78.771,11,17.762,33.7318,6.007,262.23,1.489,0.041,,,,,0.50
CalCOFI,2007SR,025,26,2007_025d,18-Jul-2020 10:12:04,18-Jul-2020 02:12:04,32.65180,-119.48166,090.0 053.0,090.0,053.0,12.000,12.085,,17.1780,,17.1745,,17.1763,33.7114,,33.7116,33.7115,,33.7131,33.7124,5.7930,,6.0354,6.2322,4.3362,,6.4106,5.1033,5.6678,252.531,263.1290,183.4912,189.028,452.1100,156.1581,169.8247,0.2439,,2.4525,2.4014,,,,,24.4838,,24.4847,,1.0253,77.3891,,8.221,,1.9043E+00,,1.0000E-12,,17.1760,17.1726,0.0427,,105.358,78.859,,,,,,,,,,,,
CalCOFI,2007SR,025,26,2007_025d,18-Jul-2020 10:12:06,18-Jul-2020 02:12:06,32.65180,-119.48166,090.0 053.0,090.0,053.0,13.000,13.092,,17.1046,,17.1027,,17.1037,33.7118,,33.7120,33.7121,,33.7137,33.7129,5.8029,,6.0458,6.2428,4.3462,,6.4345,5.1263,5.6846,252.959,263.5758,183.7489,189.459,453.1568,156.7475,170.2482,0.2411,,2.4193,2.3780,,,,,24.5015,,24.5022,,1.0424,77.0591,,8.221,,1.9043E+00,,1.0000E-12,,17.1024,17.1005,0.0462,,105.390,78.931,,,,,,,,,,,,
CalCOFI,2007SR,025,26,2007_025d,18-Jul-2020 10:12:08,18-Jul-2020 02:12:08,32.65179,-119.48166,090.0 053.0,090.0,053.0,14.000,14.099,,17.0717,,17.0770,,17.0744,33.7136,,33.7138,33.7144,,33.7160,33.7149,5.7547,,5.9954,6.1909,4.3535,,6.4519,5.1430,5.6670,250.855,261.3794,182.4821,189.775,448.0107,157.1796,169.8309,0.2414,,2.4228,2.3805,,,,,24.5107,,24.5101,,1.0469,76.9731,,8.221,,1.9043E+00,,1.0000E-12,,17.0694,17.0747,0.0496,,104.449,79.025,,,,,,,,,,,,
CalCOFI,2007SR,025,26,2007_025d,18-Jul-2020 10:12:10,18-Jul-2020 02:12:10,32.65178,-119.48166,090.0 053.0,090.0,053.0,15.000,15.107,,17.0186,,17.0272,,17.0229,33.7121,,33.7123,33.7112,,33.7128,33.7126,5.6091,,5.8432,6.0339,4.3786,,6.5118,5.2006,5.6173,244.508,254.7538,178.6605,190.867,432.4869,158.6728,168.6667,0.2744,,2.8147,2.6442,,,,,24.5221,,24.5194,,1.0484,76.9439,,8.219,,1.9043E+00,,1.0000E-12,,17.0161,17.0248,0.0531,,101.703,79.403,,,,,,,,,,,,
CalCOFI,2007SR,025,26,2007_025d,18-Jul-2020 10:12:12,18-Jul-2020 02:12:12,32.65180,-119.48166,090.0 053.0,090.0,053.0,16.000,16.114,,16.6593,,16.6418,,16.6506,33.7001,,33.7003,33.6970,,33.6986,33.6995,5.5261,,5.7565,5.9444,4.4159,,6.6009,5.2861,5.6153,240.870,250.9561,176.4701,192.481,423.5888,160.8799,168.6750,0.3962,,4.2666,3.3996,,,,,24.5970,,24.5987,,1.0639,76.6452,,8.215,,1.9043E+00,,1.0000E-12,,16.6568,16.6392,0.0565,,99.497,79.479,,,,,,,,,,,,
CalCOFI,2007SR,025,26,2007_025d,18-Jul-2020 10:12:14,18-Jul-2020 02:12:14,32.65180,-119.48166,090.0 053.0,090.0,053.0,17.000,17.121,,16.3728,,16.3673,,16.3701,33.7039,,33.7041,33.7036,,33.7052,33.7047,5.5117,,5.7415,5.9289,4.4365,,6.6501,5.3334,5.6312,240.228,250.2859,176.0835,193.365,422.0186,162.0887,169.0861,0.5740,,6.4023,3.8871,,,,,24.6662,,24.6673,,1.0974,76.0072,,8.206,,1.9043E+00,,1.0000E-12,,16.3700,16.3646,0.0598,,98.689,79.428,,,,,,,,,,,,
CalCOFI,2007SR,025,26,2007_025d,18-Jul-2020 10:12:16,18-Jul-2020 02:12:16,32.65180,-119.48166,090.0 053.0,090.0,053.0,18.000,18.128,,16.0914,,16.1486,,16.1200,33.7030,,33.7032,33.6987,,33.7003,33.7018,5.4199,,5.6456,5.8299,4.4565,,6.6978,5.3792,5.6046,236.213,246.0947,173.6661,194.227,412.1985,163.2674,168.4668,0.5969,,6.6788,3.8968,,,,,24.7299,,24.7136,,1.1319,75.3540,,8.192,,1.9043E+00,,1.0000E-12,,16.0886,16.1458,0.0630,,96.515,79.444,,,,,,,,,,,,
CalCOFI,2007SR,025,26,2007_025d,18-Jul-2020 10:12:19,18-Jul-2020 02:12:19,32.65179,-119.48166,090.0 053.0,090.0,053.0,19.000,19.135,,15.8552,,15.9044,,15.8798,33.6998,,33.7000,33.6901,,33.6917,33.6959,5.3089,,5.5296,5.7102,4.4773,,6.7475,5.4270,5.5686,231.360,241.0286,170.7440,195.124,400.3287,164.4940,167.6190,0.6271,,7.0439,3.8911,,,,,24.7809,,24.7624,,1.1673,74.6897,,8.174,,1.9043E+00,,1.0000E-12,,15.8522,15.9015,0.0663,,94.096,79.429,,,,,,,,,,,,
CalCOFI,2007SR,025,26,2007_025d,18-Jul-2020 10:12:21,18-Jul-2020 02:12:21,32.65178,-119.48166,090.0 053.0,090.0,053.0,20.000,20.142,,15.5007,,15.5201,,15.5104,33.6813,,33.6815,33.6804,,33.6820,33.6818,5.2238,,5.4406,5.6185,4.5052,,6.8141,5.4909,5.5547,227.639,237.1443,168.5036,196.326,391.2277,166.1377,167.3207,0.5830,,6.5110,3.8924,,,,,24.8461,,24.8410,,1.1706,74.6290,,8.163,,1.9043E+00,,1.0000E-12,,15.4976,15.5170,0.0694,,91.935,79.318,20,16.202,33.7168,, ,,,,,,,
CalCOFI,2007SR,025,26,2007_025d,18-Jul-2020 10:12:22,18-Jul-2020 02:12:22,32.65180,-119.48166,090.0 053.0,090.0,053.0,21.000,21.150,,15.4017,,15.3993,,15.4005,33.6809,,33.6811,33.6802,,33.6818,33.6815,5.1099,,5.3216,5.4957,4.5106,,6.8270,5.5033,5.4995,222.673,231.9602,165.5136,196.554,379.0816,166.4495,165.9816,0.6133,,6.8770,3.8964,,,,,24.8677,,24.8677,,1.1557,74.9075,,8.155,,1.9043E+00,,1.0000E-12,,15.3985,15.3961,0.0725,,89.754,79.222,21,16.037,,5.941,259.43,3.949,0.650,,,,,0.79
CalCOFI,2007SR,025,26,2007_025d,18-Jul-2020 10:12:24,18-Jul-2020 02:12:24,32.65180,-119.48166,090.0 053.0,090.0,053.0,22.000,22.157,,15.1524,,15.1665,,15.1595,33.6761,,33.6763,33.6738,,33.6754,33.6759,5.0011,,5.2079,5.3784,4.5205,,6.8506,5.5260,5.4522,217.918,226.9965,162.6506,196.980,367.4515,167.0320,164.8413,0.5896,,6.5906,3.8951,,,,,24.9188,,24.9139,,1.1318,75.3566,,8.142,,1.9043E+00,,1.0000E-12,,15.1490,15.1632,0.0756,,87.409,79.029,,,,,,,,,,,,
CalCOFI,2007SR,025,26,2007_025d,18-Jul-2020 10:12:26,18-Jul-2020 02:12:26,32.65179,-119.48166,090.0 053.0,090.0,053.0,23.000,23.164,,14.7943,,14.9229,,14.8586,33.6964,,33.6966,33.6707,,33.6723,33.6845,4.2995,,4.4748,4.6219,4.5765,,6.9843,5.6545,5.1382,187.328,195.0636,144.2323,199.410,292.6327,170.3549,157.2936,0.4071,,4.3970,3.4505,,,,,25.0121,,24.9646,,1.0490,76.9335,,8.109,,1.9043E+00,,1.0000E-12,,14.7909,14.9194,0.0786,,74.628,79.618,,,,,,,,,,,,
CalCOFI,2007SR,025,26,2007_025d,18-Jul-2020 10:12:29,18-Jul-2020 02:12:29,32.65178,-119.48166,090.0 053.0,090.0,053.0,24.000,24.171,,13.2256,,13.4597,,13.3427,33.6353,,33.6355,33.6243,,33.6259,33.6307,4.0094,,4.1717,4.3092,4.6971,,7.2722,5.9311,5.1202,174.642,181.8207,136.5940,204.607,261.6046,177.4616,157.0278,0.2560,,2.5961,2.5003,,,,,25.2912,,25.2351,,0.9226,79.4039,,8.068,,1.9043E+00,,1.0000E-12,,13.2223,13.4563,0.0815,,67.378,79.308,,,,,,,,,,,,
CalCOFI,2007SR,025,26,2007_025d,18-Jul-2020 10:12:31,18-Jul-2020 02:12:31,32.65179,-119.48166,090.0 053.0,090.0,053.0,25.000,25.178,,12.7454,,12.7533,,12.7494,33.6504,,33.6506,33.6463,,33.6479,33.6493,3.9239,,4.0824,4.2170,4.7250,,7.3388,5.9951,5.1061,170.903,177.9175,134.3427,205.794,252.4595,179.0847,156.7137,0.2212,,2.1833,2.2067,,,,,25.3983,,25.3936,,0.8559,80.7370,,8.042,,1.9043E+00,,1.0000E-12,,12.7420,12.7499,0.0841,,65.301,78.643,,,,,,,,,,,,
CalCOFI,2007SR,025,26,2007_025d,18-Jul-2020 10:12:32,18-Jul-2020 02:12:32,32.65180,-119.48166,090.0 053.0,090.0,053.0,26.000,26.186,,12.3536,,12.3466,,12.3501,33.6557,,33.6559,33.6543,,33.6559,33.6559,3.9490,,4.1086,4.2440,4.7220,,7.3316,5.9882,5.1161,171.979,179.0408,134.9906,205.646,255.0912,178.8824,156.9365,0.1523,,1.3682,1.5430,,,,,25.4783,,25.4786,,0.7999,81.8765,,8.019,,1.9043E+00,,1.0000E-12,,12.3502,12.3432,0.0866,,65.185,77.935,,,,,,,,,,,,
CalCOFI,2007SR,025,26,2007_025d,18-Jul-2020 10:12:34,18-Jul-2020 02:12:34,32.65180,-119.48166,090.0 053.0,090.0,053.0,27.000,27.193,,12.1766,,12.1852,,12.1809,33.6769,,33.6771,33.6778,,33.6794,33.6783,3.9545,,4.1144,4.2500,4.6964,,7.2705,5.9295,5.0898,172.212,179.2840,135.1309,204.519,255.6611,177.3412,156.2361,0.1214,,1.0035,1.2097,,,,,25.5287,,25.5278,,0.7602,82.6908,,7.999,,1.9043E+00,,1.0000E-12,,12.1730,12.1816,0.0891,,65.045,77.262,,,,,,,,,,,,
CalCOFI,2007SR,025,26,2007_025d,18-Jul-2020 10:12:36,18-Jul-2020 02:12:36,32.65180,-119.48166,090.0 053.0,090.0,053.0,28.000,28.200,,12.1577,,12.1656,,12.1617,33.6944,,33.6946,33.6889,,33.6905,33.6926,3.8716,,4.0277,4.1606,4.6477,,7.1543,5.8178,4.9892,168.600,175.5134,132.9561,202.398,246.8267,174.4409,153.6985,0.1127,,0.9010,1.1118,,,,,25.5459,,25.5401,,0.7453,83.0020,,7.982,,1.9043E+00,,1.0000E-12,,12.1541,12.1619,0.0916,,63.664,76.436,,,,,,,,,,,,
CalCOFI,2007SR,025,26,2007_025d,18-Jul-2020 10:12:39,18-Jul-2020 02:12:39,32.65180,-119.48166,090.0 053.0,090.0,053.0,29.000,29.207,,12.0357,,12.0719,,12.0538,33.6978,,33.6980,33.6970,,33.6986,33.6983,3.5913,,3.7348,3.8584,4.6185,,7.0845,5.7508,4.8046,156.390,162.7674,125.6044,201.119,216.9628,172.6919,149.1482,0.1065,,0.8279,1.0411,,,,,25.5717,,25.5642,,0.7213,83.5004,,7.968,,1.9043E+00,,1.0000E-12,,12.0319,12.0682,0.0940,,58.906,75.809,,,,,,,,,,,,
CalCOFI,2007SR,025,26,2007_025d,18-Jul-2020 10:12:40,18-Jul-2020 02:12:40,32.65180,-119.48166,090.0 053.0,090.0,053.0,30.000,30.214,,11.8317,,11.8196,,11.8257,33.7001,,33.7003,33.6986,,33.7002,33.7003,3.4448,,3.5818,3.7004,4.5979,,7.0354,5.7035,4.7020,150.003,156.1000,121.7587,200.215,201.3411,171.4557,146.6072,0.0954,,0.6972,0.9121,,,,,25.6118,,25.6128,,0.7153,83.6264,,7.956,,1.9043E+00,,1.0000E-12,,11.8279,11.8158,0.0964,,56.261,75.074,30,12.231,33.6888,,178.81,2.604,0.247,,,,,10.33
CalCOFI,2007SR,025,26,2007_025d,18-Jul-2020 10:12:42,18-Jul-2020 02:12:42,32.65180,-119.48166,090.0 053.0,090.0,053.0,31.000,31.222,,11.4117,,11.4224,,11.4171,33.7379,,33.7381,33.7385,,33.7401,33.7391,3.4523,,3.5896,3.7085,4.5857,,7.0062,5.6756,4.6921,150.313,156.4236,121.9454,199.662,202.0993,170.6995,146.3225,0.0853,,0.5783,0.7924,,,,,25.7189,,25.7174,,0.7012,83.9214,,7.938,,1.9043E+00,,1.0000E-12,,11.4078,11.4186,0.0988,,55.898,74.267,,,,,,,,,,,,
CalCOFI,2007SR,025,26,2007_025d,18-Jul-2020 10:12:44,18-Jul-2020 02:12:44,32.65180,-119.48166,090.0 053.0,090.0,053.0,32.000,32.229,,11.3592,,11.3669,,11.3631,33.7451,,33.7453,33.7471,,33.7487,33.7470,3.4382,,3.5749,3.6933,4.5314,,6.8766,5.5510,4.6222,149.699,155.7827,121.5757,197.294,200.5975,167.4614,144.5186,0.0799,,0.5147,0.7273,,,,,25.7342,,25.7343,,0.6875,84.2079,,7.924,,1.9043E+00,,1.0000E-12,,11.3553,11.3629,0.1011,,55.611,73.305,,,,,,,,,,,,
CalCOFI,2007SR,025,26,2007_025d,18-Jul-2020 10:12:46,18-Jul-2020 02:12:46,32.65180,-119.48166,090.0 053.0,090.0,053.0,33.000,33.236,,11.3415,,11.3420,,11.3418,33.7485,,33.7487,33.7509,,33.7525,33.7506,3.4082,,3.5435,3.6610,4.4841,,6.7637,5.4425,4.5518,148.391,154.4173,120.7882,195.233,197.3984,164.6431,142.7157,0.0802,,0.5183,0.7310,,,,,25.7401,,25.7418,,0.6907,84.1418,,7.913,,1.9043E+00,,1.0000E-12,,11.3374,11.3379,0.1033,,55.106,72.504,,,,,,,,,,,,
CalCOFI,2007SR,025,26,2007_025d,18-Jul-2020 10:12:48,18-Jul-2020 02:12:48,32.65180,-119.48166,090.0 053.0,090.0,053.0,34.000,34.243,,11.3180,,11.3173,,11.3177,33.7518,,33.7520,33.7545,,33.7561,33.7541,3.3735,,3.5073,3.6236,4.4452,,6.6708,5.3533,4.4885,146.878,152.8378,119.8772,193.541,193.6978,162.3294,141.1033,0.0774,,0.4853,0.6970,,,,,25.7470,,25.7492,,0.6819,84.3268,,7.905,,1.9043E+00,,1.0000E-12,,11.3137,11.3130,0.1056,,54.519,71.840,,,,,,,,,,,,
CalCOFI,2007SR,025,26,2007_025d,18-Jul-2020 10:12:50,18-Jul-2020 02:12:50,32.65180,-119.48166,090.0 053.0,090.0,053.0,35.000,35.250,,11.2705,,11.2792,,11.2749,33.7580,,33.7582,33.7601,,33.7617,33.7600,3.3332,,3.4652,3.5801,4.3999,,6.5627,5.2494,4.4148,145.122,151.0048,118.8199,191.566,189.4028,159.6287,139.2243,0.0745,,0.4512,0.6617,,,,,25.7604,,25.7605,,0.6811,84.3437,,7.899,,1.9043E+00,,1.0000E-12,,11.2662,11.2749,0.1078,,53.815,71.052,,,,,,,,,,,,
CalCOFI,2007SR,025,26,2007_025d,18-Jul-2020 10:12:52,18-Jul-2020 02:12:52,32.65180,-119.48166,090.0 053.0,090.0,053.0,36.000,36.258,,11.2116,,11.2172,,11.2144,33.7634,,33.7636,33.7649,,33.7665,33.7651,3.3071,,3.4379,3.5520,4.3620,,6.4722,5.1625,4.3573,143.986,149.8189,118.1359,189.911,186.6243,157.3655,137.7507,0.0739,,0.4442,0.6543,,,,,25.7753,,25.7755,,0.6786,84.3970,,7.891,,1.9043E+00,,1.0000E-12,,11.2072,11.2128,0.1101,,53.330,70.349,,,,,,,,,,,,
CalCOFI,2007SR,025,26,2007_025d,18-Jul-2020 10:12:54,18-Jul-2020 02:12:54,32.65180,-119.48166,090.0 053.0,090.0,053.0,37.000,37.265,,11.1799,,11.1797,,11.1798,33.7672,,33.7674,33.7697,,33.7713,33.7694,3.2644,,3.3933,3.5059,4.3274,,6.3896,5.0832,4.2946,142.123,147.8741,117.0142,188.402,182.0677,155.3020,136.1581,0.0703,,0.4018,0.6101,,,,,25.7840,,25.7860,,0.6731,84.5111,,7.885,,1.9043E+00,,1.0000E-12,,11.1754,11.1752,0.1123,,52.606,69.737,,,,,,,,,,,,
CalCOFI,2007SR,025,26,2007_025d,18-Jul-2020 10:12:57,18-Jul-2020 02:12:57,32.65180,-119.48166,090.0 053.0,090.0,053.0,38.000,38.272,,11.1326,,11.1323,,11.1325,33.7710,,33.7712,33.7730,,33.7746,33.7729,3.2190,,3.3458,3.4570,4.2921,,6.3053,5.0022,4.2296,140.147,145.8114,115.8244,186.865,177.2347,153.2003,134.5124,0.0701,,0.3995,0.6076,,,,,25.7955,,25.7971,,0.6736,84.5024,,7.880,,1.9043E+00,,1.0000E-12,,11.1280,11.1276,0.1145,,51.824,69.101,,,,,,,,,,,,
CalCOFI,2007SR,025,26,2007_025d,18-Jul-2020 10:12:58,18-Jul-2020 02:12:58,32.65180,-119.48166,090.0 053.0,090.0,053.0,39.000,39.279,,11.0275,,11.0295,,11.0285,33.7801,,33.7803,33.7822,,33.7838,33.7821,3.2138,,3.3404,3.4514,4.2632,,6.2363,4.9359,4.1937,139.913,145.5671,115.6835,185.603,176.6624,151.4746,133.5791,0.0654,,0.3442,0.5494,,,,,25.8215,,25.8228,,0.6697,84.5844,,7.874,,1.9043E+00,,1.0000E-12,,11.0227,11.0248,0.1167,,51.626,68.489,,,,,,,,,,,,
CalCOFI,2007SR,025,26,2007_025d,18-Jul-2020 10:13:00,18-Jul-2020 02:13:00,32.65180,-119.48166,090.0 053.0,090.0,053.0,40.000,40.287,,11.0034,,11.0054,,11.0044,33.7832,,33.7834,33.7857,,33.7873,33.7854,3.2052,,3.3314,3.4421,4.2322,,6.1623,4.8648,4.1535,139.540,145.1777,115.4589,184.251,175.7501,149.6258,132.5424,0.0621,,0.3054,0.5083,,,,,25.8283,,25.8299,,0.6666,84.6488,,7.868,,1.9043E+00,,1.0000E-12,,10.9986,11.0006,0.1189,,51.463,67.957,40,11.033,33.7774,,146.28,0.437,0.142,,,,,18.56
CalCOFI,2007SR,025,26,2007_025d,18-Jul-2020 10:13:02,18-Jul-2020 02:13:02,32.65180,-119.48166,090.0 053.0,090.0,053.0,41.000,41.294,,10.9918,,10.9926,,10.9922,33.7842,,33.7844,33.7867,,33.7883,33.7864,3.1796,,3.3047,3.4145,4.2007,,6.0871,4.7926,4.1036,138.423,144.0117,114.7864,182.879,173.0180,147.7496,131.2680,0.0611,,0.2936,0.4958,,,,,25.8311,,25.8329,,0.6669,84.6423,,7.865,,1.9043E+00,,1.0000E-12,,10.9869,10.9876,0.1211,,51.039,67.433,,,,,,,,,,,,
CalCOFI,2007SR,025,26,2007_025d,18-Jul-2020 10:13:04,18-Jul-2020 02:13:04,32.65180,-119.48166,090.0 053.0,090.0,053.0,42.000,42.301,,10.9620,,10.9595,,10.9608,33.7860,,33.7862,33.7882,,33.7898,33.7880,3.1624,,3.2867,3.3960,4.1713,,6.0169,4.7251,4.0606,137.677,143.2329,114.3372,181.599,171.1934,145.9993,130.1683,0.0615,,0.2984,0.5008,,,,,25.8379,,25.8400,,0.6665,84.6514,,7.861,,1.9043E+00,,1.0000E-12,,10.9569,10.9544,0.1233,,50.733,66.915,,,,,,,,,,,,
CalCOFI,2007SR,025,26,2007_025d,18-Jul-2020 10:13:06,18-Jul-2020 02:13:06,32.65180,-119.48166,090.0 053.0,090.0,053.0,43.000,43.309,,10.9213,,10.9226,,10.9220,33.7897,,33.7899,33.7919,,33.7935,33.7917,3.1580,,3.2821,3.3912,4.1452,,5.9546,4.6653,4.0283,137.482,143.0294,114.2198,180.461,170.7165,144.4431,129.3315,0.0583,,0.2607,0.4606,,,,,25.8480,,25.8495,,0.6687,84.6046,,7.857,,1.9043E+00,,1.0000E-12,,10.9161,10.9174,0.1255,,50.619,66.446,,,,,,,,,,,,
CalCOFI,2007SR,025,26,2007_025d,18-Jul-2020 10:13:09,18-Jul-2020 02:13:09,32.65180,-119.48166,090.0 053.0,090.0,053.0,44.000,44.316,,10.9065,,10.9113,,10.9089,33.7907,,33.7909,33.7927,,33.7943,33.7926,3.1193,,3.2417,3.3495,4.1084,,5.8668,4.5809,3.9652,135.797,141.2704,113.2053,178.857,166.5952,142.2498,127.7276,0.0569,,0.2443,0.4429,,,,,25.8515,,25.8522,,0.6660,84.6628,,7.854,,1.9043E+00,,1.0000E-12,,10.9012,10.9059,0.1276,,49.983,65.840,,,,,,,,,,,,
CalCOFI,2007SR,025,26,2007_025d,18-Jul-2020 10:13:11,18-Jul-2020 02:13:11,32.65180,-119.48166,090.0 053.0,090.0,053.0,45.000,45.323,,10.8478,,10.8532,,10.8505,33.7926,,33.7928,33.7937,,33.7953,33.7941,3.0623,,3.1821,3.2880,4.0822,,5.8042,4.5208,3.9044,133.314,138.6784,111.7102,177.716,160.5222,140.6895,126.1999,0.0597,,0.2772,0.4782,,,,,25.8634,,25.8633,,0.6655,84.6731,,7.849,,1.9043E+00,,1.0000E-12,,10.8424,10.8478,0.1298,,49.009,65.339,,,,,,,,,,,,
CalCOFI,2007SR,025,26,2007_025d,18-Jul-2020 10:13:13,18-Jul-2020 02:13:13,32.65180,-119.48166,090.0 053.0,090.0,053.0,46.000,46.330,,10.8121,,10.8081,,10.8101,33.7950,,33.7952,33.7967,,33.7983,33.7968,3.0127,,3.1303,3.2346,4.0638,,5.7603,4.4786,3.8566,131.154,136.4236,110.4097,176.911,155.2391,139.5887,124.9992,0.0612,,0.2948,0.4970,,,,,25.8716,,25.8736,,0.6722,84.5317,,7.847,,1.9043E+00,,1.0000E-12,,10.8065,10.8025,0.1319,,48.179,64.982,,,,,,,,,,,,
CalCOFI,2007SR,025,26,2007_025d,18-Jul-2020 10:13:14,18-Jul-2020 02:13:14,32.65180,-119.48166,090.0 053.0,090.0,053.0,47.000,47.338,,10.7521,,10.7409,,10.7465,33.7993,,33.7995,33.8010,,33.8026,33.8011,2.9939,,3.1106,3.2143,4.0453,,5.7161,4.4362,3.8253,130.334,135.5676,109.9160,176.103,153.2335,138.4838,124.1999,0.0565,,0.2396,0.4378,,,,,25.8856,,25.8889,,0.6655,84.6733,,7.842,,1.9043E+00,,1.0000E-12,,10.7464,10.7353,0.1341,,47.818,64.596,,,,,,,,,,,,
CalCOFI,2007SR,025,26,2007_025d,18-Jul-2020 10:13:16,18-Jul-2020 02:13:16,32.65180,-119.48166,090.0 053.0,090.0,053.0,48.000,48.345,,10.6829,,10.6794,,10.6812,33.8055,,33.8057,33.8076,,33.8092,33.8075,2.9890,,3.1055,3.2090,4.0299,,5.6794,4.4008,3.8049,130.116,135.3400,109.7847,175.429,152.7003,137.5621,123.6734,0.0549,,0.2208,0.4176,,,,,25.9026,,25.9048,,0.6605,84.7793,,7.838,,1.9043E+00,,1.0000E-12,,10.6771,10.6737,0.1362,,47.670,64.267,,,,,,,,,,,,
CalCOFI,2007SR,025,26,2007_025d,18-Jul-2020 10:13:18,18-Jul-2020 02:13:18,32.65180,-119.48166,090.0 053.0,090.0,053.0,49.000,49.352,,10.6503,,10.6619,,10.6561,33.8107,,33.8109,33.8147,,33.8163,33.8136,2.9639,,3.0793,3.1820,3.9997,,5.6073,4.3316,3.7568,129.023,134.1990,109.1266,174.116,150.0270,135.7667,122.4467,0.0515,,0.1808,0.3743,,,,,25.9124,,25.9135,,0.6595,84.7996,,7.832,,1.9043E+00,,1.0000E-12,,10.6445,10.6561,0.1383,,47.238,63.765,,,,,,,,,,,,
CalCOFI,2007SR,025,26,2007_025d,18-Jul-2020 10:13:21,18-Jul-2020 02:13:21,32.65180,-119.48166,090.0 053.0,090.0,053.0,50.000,50.360,,10.6117,,10.6177,,10.6147,33.8118,,33.8120,33.8119,,33.8135,33.8128,2.9050,,3.0177,3.1184,3.9649,,5.5242,4.2518,3.6851,126.461,131.5245,107.5840,172.598,143.7607,133.6909,120.6375,0.0496,,0.1585,0.3501,,,,,25.9200,,25.9191,,0.6568,84.8565,,7.827,,1.9043E+00,,1.0000E-12,,10.6057,10.6117,0.1404,,46.263,63.149,50,10.533,33.8248,2.978,130.01,0.161,0.114,,,,,22.42